Tracking 20623 objects as of 5-Apr-2020
HD Live streaming from Space Station
objects crossing your sky now

OSCAR 30 DEB

Track OSCAR 30 DEB now!
10-day predictions


NORAD ID: 21878
Int'l Code: 1985-066H
Perigee: 978.2 km
Apogee: 1,200.0 km
Inclination: 90.1 °
Period: 106.9 minutes
Semi major axis: 7460 km
RCS: 0.311 m2 (medium)
Launch date: August 3, 1985
Source: United States (US)
Launch site: AIR FORCE WESTERN TEST RANGE (AFWTR)

Note: This is SATELLITE DEBRIS
aabbcc
Your satellite tracking list
Your tracking list is empty




NASA's NSSDC Master Catalog

Two Line Element Set (TLE):
1 21878U 85066H   20095.40986296  .00000261  00000-0  38707-3 0  9998
2 21878  90.1027  38.6862 0148670 227.9998 253.4737 13.47360438693606
Source of the keplerian elements: AFSPC